map of BCN home
BCN - Airport
Location
City:  Barcelona, Catalonia, Spain
Near (Alt.):El Prat del Llobregat
Name:El Prat
Old (Alt.):Barcelona International Airport
ICAO:LEBL
IATA:BCN

Details
Type:Airport (Aerodrome, Airfield)
Use:Public/Civil, International (customs port of entry)
Latitude:4117'49"N (41.297078)
Longitude:204'42"E (2.078464)
Datum:WGS 1984
Elevation:12 ft (4 m)
Variation:0.93E (WMM2015 magnetic declination)
0.11 annual change
Runways:3
Longest:11654 × 148 ft (3552 × 45 m), paved

Time
Time Zone:UTC+1 (DST+2)
Local Time:

Weather
METAR:LEBL 181830Z 26007KT 9999 FEW025 SCT030 12/09 Q1022 NOSIG
TAF:LEBL 181700Z 1818/1918 VRB03KT 9999 SCT025 TX15/1912Z TN08/1906Z
TEMPO 1818/1820 25008KT
BECMG 1900/1902 34008KT
BECMG 1909/1911 27010KT

Related Locations
Nearby:
Farthest:CHT: 12243 mi / 19703 km
Waitangi [Tuuta], CIT, NZ

Find:

   beyond  
but within

Other Information
Maps:
NOTAMs:
Links:
Sources:

  
  • flag of Spain
  • flag of Catalonia
  

Sectional Chart

Flight Planning
at skyvector.com

Satellite Image

Google Maps Satellite view

 

Copyright © 2004-2018 Karl L. Swartz. All rights reserved.
The Great Circle Mapper name and logo are trademarks of the Great Circle Mapper.
All other trademarks mentioned herein belong to their respective owners.
Please see credits for attibutions and further copyright information.

  Follow gcmap on Facebook Follow gcmap on Twitter Follow gcmap on Google+ GCmap on LinkedIn

hCard Microformat

Geo Microformat